Location: Adair
(33.3137°N, 90.0906°W)
Time: 07:25:23
(UTC+00:00)

ACS3 Solar Sail - Visible Passes

Search period start: 21 May 2026 00:00
Search period end: 31 May 2026 00:00
Orbit: 902 x 937 km, 97.2° (Epoch: 20 May)

Date Brightness Start Highest point End Pass type
(mag) Time Alt. Az. Time Alt. Az. Time Alt. Az.
21 May 3.7 05:35:25 10° NE 05:37:33 17° ENE 05:37:33 17° ENE visible
21 May 2.6 07:16:42 10° N 07:21:01 39° NW 07:21:01 39° NW visible
22 May 3.5 05:43:25 10° NE 05:46:05 21° ENE 05:46:05 21° ENE visible
22 May 2.8 07:25:14 10° N 07:29:33 34° NW 07:29:33 34° NW visible
23 May 3.3 05:51:31 10° NNE 05:54:37 25° ENE 05:54:37 25° ENE visible
23 May 2.9 07:33:49 10° NNW 07:38:05 29° NW 07:38:05 29° NW visible
24 May 3.1 05:59:40 10° NNE 06:03:09 30° NE 06:03:09 30° NE visible
24 May 3.1 07:42:28 10° NNW 07:46:37 25° WNW 07:46:37 25° WNW visible
25 May 2.9 06:07:53 10° NNE 06:11:40 36° NE 06:11:40 36° NE visible
25 May 3.3 07:51:11 10° NNW 07:55:08 21° WNW 07:55:08 21° WNW visible
26 May 2.7 06:16:08 10° NNE 06:20:12 42° NE 06:20:12 42° NE visible
26 May 3.5 08:00:00 10° NNW 08:03:40 18° WNW 08:03:40 18° WNW visible
27 May 2.5 06:24:26 10° NNE 06:28:43 48° NE 06:28:43 48° NE visible
27 May 3.7 08:08:58 10° NW 08:11:58 14° WNW 08:12:11 14° WNW visible
28 May 2.3 06:32:46 10° NNE 06:37:14 53° NNE 06:37:14 53° NNE visible
28 May 3.8 08:18:17 10° NW 08:20:12 12° WNW 08:20:41 12° WNW visible
29 May 2.2 06:41:09 10° N 06:45:44 55° N 06:45:44 55° N visible
30 May 4.0 05:09:47 10° ENE 05:10:47 12° ENE 05:10:47 12° ENE visible
30 May 2.2 06:49:33 10° N 06:54:15 54° NNW 06:54:15 54° NNW visible
